Location: Poughquag
(41.6090°N, 73.6820°W)
Time: 02:59:18
(UTC-04:00)

Transit 2A Rocket - Pass Details

Date: 31 May 2020
Orbit: 584 x 919 km, 66.7° (Epoch: 06 July)

Event Time Altitude Azimuth Distance (km) Brightness Sun altitude
Rises 08:31:05 0° 325° (NW) 3,524 8.1 32.5°
Reaches altitude 10° 08:33:37 10° 321° (NW) 2,600 7.5 33.0°
Maximum altitude 08:39:33 54° 246° (WSW) 1,107 5.9 34.1°
Drops below altitude 10° 08:45:26 10° 171° (S) 2,579 7.9 35.2°
Sets 08:47:57 0° 167° (SSE) 3,493 8.6 35.7°
